Location: ??????????
(54.8537°N, 38.8755°E)
Time: 16:23:39
(UTC+00:00)

Tiros 1 despin weight - Pass Details

Date: 17 September 2024
Orbit: 573 x 615 km, 48.2° (Epoch: 06 October)

Event Time Altitude Azimuth Distance (km) Brightness Sun altitude
Rises 05:49:45 0° 269° (W) 2,891 ? 22.4°
Reaches altitude 10° 05:53:35 10° 237° (WSW) 1,979 ? 22.9°
Maximum altitude 05:55:07 12° 217° (SW) 1,872 ? 23.1°
Drops below altitude 10° 05:56:36 10° 198° (SSW) 1,966 ? 23.2°
Sets 06:00:27 0° 165° (SSE) 2,864 ? 23.7°
